#timestamp,LO_Frequency,Hit,StdDev 
1563062415.4,286047000.3,N
1563062435.2,286047000.8,N
1563062455.0,286047000.3,N
1563062455.9,286047000.3,N
1563062475.8,286046999.9,N
1563062495.6,286047000.1,N
1563062515.5,286046999.9,N
1563062535.3,286047002.8,N
1563062555.2,286047001.9,N
1563062575.0,286047004.3,Y
1563062575.9,286047004.3,P
1563062595.8,286047000.3,N
1563062615.6,286047001.7,N
1563062635.5,286046998.2,N
1563062655.3,286046999.0,N
1563062675.1,286046996.6,N
1563062695.9,286046996.8,N
1563062715.7,286046999.5,N
1563062735.6,286047000.7,N
1563062755.2,286047000.6,N
1563062775.1,286047001.0,N
1563062795.9,286047001.2,N
1563062815.7,286047000.0,N
1563062835.6,286047002.3,N
1563062855.4,286047001.9,N
1563062875.2,286047003.8,N
1563062895.1,286047002.6,N
1563062896.0,286047002.6,N
1563062915.6,286047002.8,N
1563062935.4,286047001.8,N
1563062955.2,286047002.0,N
1563062975.4,286047003.4,N
1563062995.7,286047001.7,N
1563063015.6,286047004.4,N
1563063035.4,286047002.2,N
1563063055.2,286047001.8,N
1563063075.1,286047004.4,N
1563063076.0,286047004.4,N
1563063095.8,286047004.2,N
1563063115.6,286047002.3,N
1563063135.5,286047002.7,N
1563063155.3,286047002.7,N
1563063175.2,286047000.7,N
1563063195.9,286047000.3,N
1563063215.7,286047003.6,N
1563063235.6,286047003.1,N
1563063255.5,286047004.4,N
1563063275.3,286047002.7,N
1563063295.2,286047002.7,N
1563063315.9,286047002.3,N
1563063335.7,286047002.1,N
1563063355.6,286047001.4,N
1563063375.4,286047001.8,N
1563063395.3,286047002.1,N
1563063415.1,286046999.9,N
1563063416.0,286046999.9,N
1563063435.8,286047000.0,N
1563063455.7,286047002.1,N
1563063475.5,286047002.3,N
1563063495.3,286047002.5,N
1563063515.2,286047003.5,N
1563063535.0,286047001.8,N
1563063535.9,286047001.8,N
1563063555.8,286047000.0,N
1563063575.6,286047001.7,N
1563063595.4,286047001.5,N
1563063615.3,286047001.9,N
1563063635.1,286047001.9,N
1563063655.9,286047001.6,N
1563063675.7,286047002.0,N
1563063695.5,286047001.8,N
1563063715.4,286047004.0,Y
1563063735.2,286047001.6,P
1563063755.0,286047002.2,P
1563063755.9,286047002.2,P
1563063775.8,286047000.1,N
1563063795.6,286047002.8,Y
1563063815.5,286046998.2,P
1563063835.3,286047000.8,N
1563063855.1,286046999.9,N
1563063875.9,286047000.1,N
1563063895.7,286047000.1,N
1563063915.6,286046999.1,N
1563063935.4,286046996.9,Y
1563063955.6,286046997.6,P
1563063975.5,286046997.7,N
1563063995.3,286046995.2,P
1563064015.2,286046999.4,N
1563064035.9,286046999.6,N
1563064055.7,286047001.0,N
1563064075.6,286047000.3,N
1563064095.4,286047000.3,N
1563064115.3,286046999.4,N
1563064135.1,286047000.9,N
1563064136.0,286047000.9,N
1563064155.8,286047001.1,N
1563064175.7,286046998.1,N
1563064195.5,286046999.0,N
1563064215.3,286046999.9,N
1563064235.2,286047001.1,N
1563064255.0,286046998.9,N
1563064255.9,286046998.9,N
1563064275.8,286046998.7,N
1563064295.6,286046999.9,N
1563064315.4,286047002.8,N
1563064335.3,286047003.8,N
1563064355.1,286047005.1,N
1563064375.9,286047003.7,N
1563064395.7,286047003.4,N
1563064415.5,286047002.9,N
1563064435.4,286047004.1,N
1563064455.2,286047003.1,N
1563064475.0,286047003.2,N
1563064475.9,286047003.2,N
1563064495.8,286047004.2,N
1563064515.6,286047003.1,N
1563064535.5,286047004.2,N
1563064555.3,286047003.9,N
1563064575.1,286047003.8,N
1563064595.9,286047004.4,N
1563064615.7,286047001.7,N
1563064635.6,286047004.3,N
1563064655.4,286047001.4,N
1563064675.2,286047000.3,N
1563064695.1,286047000.6,N
1563064696.0,286047000.6,N
1563064715.8,286047000.6,N
1563064735.7,286047000.6,N
1563064755.5,286046998.1,N
1563064775.3,286047000.0,N
1563064795.2,286046998.1,N
1563064815.0,286046998.5,N
1563064815.9,286046998.5,N
1563064835.7,286047001.1,N
1563064855.6,286047001.1,N
1563064875.4,286046998.2,N
1563064895.3,286046998.2,N
1563064915.1,286046999.5,N
1563064916.0,286046999.5,N
1563064935.8,286047000.8,N
1563064955.7,286047000.6,N
1563064975.1,286046998.3,N
1563064976.0,286046998.3,N
1563064995.8,286047000.9,N
1563065015.7,286046998.9,N
1563065035.5,286047000.7,N
1563065055.4,286046999.5,N
1563065075.1,286046998.5,N
1563065095.9,286046998.6,N
1563065115.7,286046998.7,N
1563065135.6,286047000.8,N
1563065155.4,286047001.2,N
1563065175.2,286047001.1,N
1563065195.1,286046999.8,N
1563065196.0,286046999.8,N
1563065215.8,286047001.2,N
1563065235.6,286047000.6,N
1563065255.5,286047000.4,N
1563065275.3,286047001.2,N
1563065295.2,286046998.8,N
1563065315.9,286046999.4,N
1563065335.7,286046997.7,N
1563065355.6,286046995.1,Y
1563065375.4,286046996.7,P
1563065395.3,286046999.5,N
1563065415.1,286046997.0,N
1563065416.0,286046997.0,N
1563065435.8,286046997.1,N
1563065455.1,286046995.5,Y
1563065475.6,286046999.5,P
1563065495.4,286046996.5,P
1563065515.3,286046996.8,N
1563065535.1,286046996.8,N
1563065536.0,286046996.8,N
1563065555.8,286046998.8,N
1563065575.7,286046998.7,N
1563065595.5,286046999.5,N
1563065615.3,286047000.6,N
1563065635.2,286047000.0,N
1563065655.0,286047000.3,N
1563065655.9,286047000.3,N
1563065675.8,286047002.3,N
1563065695.8,286047002.6,N
1563065715.6,286047002.4,N
1563065735.5,286047002.4,N
1563065755.3,286047000.5,N
1563065775.1,286047001.1,N
1563065795.9,286047000.7,N
1563065815.7,286047000.9,N
1563065835.6,286046999.7,N
1563065855.4,286047001.3,N
1563065875.2,286047002.6,N
1563065895.1,286046999.4,N
1563065896.0,286046999.4,N
1563065915.8,286046998.6,N
1563065935.7,286046999.2,N
1563065955.5,286046996.8,N
1563065975.3,286046999.4,N
1563065995.2,286046999.4,N
